Location: Bessat
(45.8735°N, 1.9924°E)
Time: 13:49:51
(UTC+00:00)

Cosmos 1238 Rocket - Pass Details

Date: 11 May 2021
Orbit: 374 x 1021 km, 82.9° (Epoch: 19 June)

Event Time Altitude Azimuth Distance (km) Brightness Sun altitude
Rises 22:14:11 0° 353° (N) 3,705 8.3 -22.5°
Reaches altitude 10° 22:16:54 10° 357° (N) 2,696 7.3 -22.7°
Maximum altitude 22:23:04 63° 78° (ENE) 960 3.8 -23.1°
Enters shadow 22:24:14 51° 129° (SE) 1,051 3.8 -23.2°
